Location: Hermaringen
(48.5952°N, 10.2585°E)
Time: 06:15:33
(UTC+00:00)

SL-08 R/B - Pass Details

Date: 18 November 2025
Orbit: 942 x 1007 km, 82.9° (Epoch: 10 December)

Event Time Altitude Azimuth Distance (km) Brightness Sun altitude
Rises 16:01:37 0° 180° (S) 3,607 7.8 -4.6°
Reaches altitude 10° 16:04:06 10° 178° (S) 2,661 7.1 -5.0°
Maximum altitude 16:10:09 73° 95° (E) 990 4.4 -5.9°
Drops below altitude 10° 16:16:12 10° 13° (NNE) 2,674 6.5 -6.8°
Sets 16:18:43 0° 11° (N) 3,626 7.2 -7.2°
